Weather History for EGDR - February, 2013

Change the Weather History Date:

Saturday, February 16, 2013

  Actual Average Record
Temperature  
Mean Temperature 46 °F -  
Max Temperature 51 °F 47 °F 51 °F (1997)
Min Temperature 42 °F 39 °F 28 °F (2005)
Degree Days  
Heating Degree Days 18    
Moisture  
Dew Point 43 °F    
Average Humidity 84    
Maximum Humidity 93    
Minimum Humidity 65    
Precipitation  
Precipitation 0.00 in - - ()
Sea Level Pressure  
Sea Level Pressure 30.13 in    
Wind  
Wind Speed 8 mph ()    
Max Wind Speed 15 mph    
Max Gust Speed -    
Visibility 7.8 miles    
Events      
Averages and records for this station are not official NWS values.
T = Trace of Precipitation, MM = Missing Value Source: Averaged Metar Reports

Daily Weather History Graph

Daily Weather History Graph

Search for Another Location

Airport or City:

Trip Planner

Search our weather history database for the weather conditions in past years. The results will help you decide how hot, cold, wet, or windy it might be!

Date:

Astronomy

Feb. 16, 2013 Rise Set
Actual Time 7:29 AM GMT 5:41 PM GMT
Civil Twilight 6:56 AM GMT 6:14 PM GMT
Nautical Twilight 6:18 AM GMT 6:52 PM GMT
Astronomical Twilight 5:41 AM GMT 7:29 PM GMT
Moon 9:51 AM GMT (2/16) 12:08 AM GMT (2/16)
Length of Visible Light 11h 18m
Length of Day
10h 11m
Waxing Crescent, 37% of the Moon is Illuminated
Feb 16
Waxing Crescent
Feb 17
First Quarter
Feb 25
Full
Mar 4
Last Quarter
Mar 11
New

Hourly Weather History & Observations

Time (GMT) Temp. Windchill Dew Point Humidity Pressure Visibility Wind Dir Wind Speed Gust Speed Precip Events Conditions
12:50 AM 42.8 °F 39.3 °F 41.0 °F 93% 30.18 in 6.2 mi SSE 5.8 mph - N/A   Haze
1:50 AM 44.6 °F 40.7 °F 42.8 °F 93% 30.18 in 6.2 mi South 6.9 mph - N/A   Haze
2:50 AM 46 °F - 43 °F 86% 30.19 in 11 mi South 5.8 mph - -   Haze
2:50 AM 46.4 °F 43.5 °F 42.8 °F 87% 30.15 in 6.2 mi South 5.8 mph - N/A   Haze
3:50 AM 46.4 °F 43.5 °F 44.6 °F 93% 30.15 in 6.2 mi South 5.8 mph - N/A   Haze
4:50 AM 44.6 °F 40.7 °F 42.8 °F 93% 30.15 in 6.2 mi South 6.9 mph - N/A   Mostly Cloudy
5:50 AM 44 °F - 41 °F 86% 30.17 in 12 mi South 6.9 mph - -   Scattered Clouds
5:50 AM 44.6 °F 40.7 °F 41.0 °F 87% 30.15 in 6.2 mi South 6.9 mph - N/A   Partly Cloudy
6:50 AM 44.6 °F 40.7 °F 41.0 °F 87% 30.15 in 6.2 mi South 6.9 mph - N/A   Scattered Clouds
7:50 AM 42.8 °F 38.6 °F 39.2 °F 87% 30.15 in 6.2 mi South 6.9 mph - N/A   Partly Cloudy
8:50 AM 45 °F - 41 °F 82% 30.18 in 12 mi South 6.9 mph - -   Partly Cloudy
8:50 AM 44.6 °F 40.7 °F 41.0 °F 87% 30.15 in 6.2 mi South 6.9 mph - N/A   Scattered Clouds
9:50 AM 48.2 °F - 42.8 °F 82% 30.15 in 6.2 mi South 6.9 mph - N/A   Scattered Clouds
10:50 AM 50.0 °F - 41.0 °F 71% 30.15 in 6.2 mi South 9.2 mph - N/A   Partly Cloudy
11:50 AM 51 °F - 43 °F 65% 30.18 in 16 mi SSE 11.5 mph - -   Partly Cloudy
11:50 AM 51.8 °F - 42.8 °F 71% 30.15 in 6.2 mi SSE 11.5 mph - N/A   Partly Cloudy
12:50 PM 50.0 °F - 42.8 °F 76% 30.12 in 6.2 mi SSE 11.5 mph - N/A   Mostly Cloudy
1:50 PM 50.0 °F - 42.8 °F 76% 30.12 in 6.2 mi SSE 15.0 mph - N/A   Scattered Clouds
2:50 PM 50 °F - 43 °F 70% 30.13 in 16 mi SSE 13.8 mph - -   Mostly Cloudy
2:50 PM 50.0 °F - 42.8 °F 76% 30.09 in 6.2 mi SSE 13.8 mph - N/A   Mostly Cloudy
3:50 PM 48.2 °F - 42.8 °F 82% 30.09 in 6.2 mi SSE 15.0 mph - N/A   Scattered Clouds
4:50 PM 48.2 °F - 42.8 °F 82% 30.09 in 6.2 mi SSE 11.5 mph - N/A   Partly Cloudy
5:50 PM 46 °F - 42 °F 80% 30.12 in 12 mi SSE 10.4 mph - -   Scattered Clouds
5:50 PM 46.4 °F 41.5 °F 42.8 °F 87% 30.09 in 6.2 mi SSE 10.4 mph - N/A   Partly Cloudy
6:50 PM 44.6 °F 39.2 °F 42.8 °F 93% 30.09 in 6.2 mi SE 10.4 mph - N/A   Partly Cloudy
7:50 PM 46.4 °F 41.1 °F 42.8 °F 87% 30.09 in 6.2 mi SE 11.5 mph - N/A   Scattered Clouds
8:50 PM 47 °F - 45 °F 88% 30.10 in 11 mi SE 12.7 mph - -   Mostly Cloudy
8:50 PM 46.4 °F 40.7 °F 44.6 °F 93% 30.06 in 6.2 mi SE 12.7 mph - N/A   Mostly Cloudy
9:50 PM 48.2 °F - 44.6 °F 87% 30.06 in 6.2 mi SE 12.7 mph - N/A   Overcast
10:50 PM 48.2 °F - 44.6 °F 87% 30.06 in 6.2 mi SSE 13.8 mph - N/A   Mostly Cloudy
11:50 PM 45 °F - 42 °F 86% 30.09 in 11 mi SSE 10.4 mph - -   Scattered Clouds
11:50 PM 44.6 °F 39.2 °F 42.8 °F 93% 30.06 in 6.2 mi SSE 10.4 mph - N/A   Partly Cloudy